Weather History for Crossville, TN

Change the Weather History Date:

Monday, September 30, 2013

  Actual Average Record
Temperature  
Mean Temperature 64 °F 62 °F  
Max Temperature 74 °F 73 °F 86 °F (1998)
Min Temperature 53 °F 51 °F 35 °F (1967)
Degree Days  
Heating Degree Days 1    
Month to date heating degree days 15  
Since 1 July heating degree days 15  
Cooling Degree Days 0    
Month to date cooling degree days 136  
Year to date cooling degree days 893  
Growing Degree Days 13 (Base 50)    
Moisture  
Dew Point 53 °F    
Average Humidity 71    
Maximum Humidity 93    
Minimum Humidity 49    
Precipitation  
Precipitation 0.00 in 0.13 in 1.97 in (1985)
Month to date precipitation 3.04 3.88  
Year to date precipitation 49.65 42.00  
Sea Level Pressure  
Sea Level Pressure 30.06 in    
Wind  
Wind Speed 2 mph (South)    
Max Wind Speed 10 mph    
Max Gust Speed 17 mph    
Visibility 6 miles    
Events      
T = Trace of Precipitation, MM = Missing Value Source: NWS Daily Summary

Daily Weather History Graph

Daily Weather History Graph

Search for Another Location

Airport:

Trip Planner

Search our weather history database for the weather conditions in past years. The results will help you decide how hot, cold, wet, or windy it might be!

Date:

Astronomy

Sep. 30, 2013 Rise Set
Actual Time 6:34 AM CDT 6:25 PM CDT
Civil Twilight 6:09 AM CDT 6:50 PM CDT
Nautical Twilight 5:39 AM CDT 7:20 PM CDT
Astronomical Twilight 5:09 AM CDT 7:50 PM CDT
Moon 2:18 AM CDT (9/30) 3:49 PM CDT (9/30)
Length of Visible Light 12h 41m
Length of Day
11h 50m
Waning Crescent, 19% of the Moon is Illuminated
Sep 30
Waning Crescent
Oct 4
New
Oct 11
First Quarter
Oct 18
Full
Oct 26
Last Quarter

Hourly Weather History & Observations

Time (CDT) Temp. Dew Point Humidity Pressure Visibility Wind Dir Wind Speed Gust Speed Precip Events Conditions
12:23 AM 57.2 °F 53.6 °F 88% 30.08 in 1.5 mi Calm Calm - N/A   Clear
12:34 AM 57.2 °F 53.6 °F 88% 30.08 in 3.0 mi Calm Calm - 0.01 in   Clear
12:53 AM 55.9 °F 53.1 °F 90% 30.05 in 4.0 mi Calm Calm - 0.01 in   Partly Cloudy
1:53 AM 55.9 °F 52.0 °F 87% 30.04 in 4.0 mi Calm Calm - N/A   Clear
2:09 AM 55.4 °F 51.8 °F 88% 30.08 in 2.5 mi Calm Calm - N/A   Clear
2:25 AM 55.4 °F 51.8 °F 88% 30.07 in 4.0 mi Calm Calm - N/A   Clear
2:29 AM 55.4 °F 51.8 °F 88% 30.07 in 1.8 mi Calm Calm - N/A   Clear
2:40 AM 53.6 °F 51.8 °F 94% 30.07 in 3.0 mi Calm Calm - N/A   Clear
2:53 AM 55.0 °F 51.1 °F 86% 30.04 in 3.0 mi Calm Calm - N/A   Clear
3:10 AM 55.4 °F 51.8 °F 88% 30.07 in 2.5 mi Calm Calm - N/A   Clear
3:20 AM 55.4 °F 51.8 °F 88% 30.08 in 6.0 mi Calm Calm - N/A   Clear
3:51 AM 53.6 °F 51.8 °F 94% 30.07 in 1.8 mi Calm Calm - N/A   Clear
3:53 AM 54.0 °F 51.1 °F 90% 30.04 in 1.8 mi Calm Calm - N/A   Clear
4:01 AM 55.4 °F 51.8 °F 88% 30.07 in 3.0 mi Calm Calm - N/A   Clear
4:53 AM 55.0 °F 51.1 °F 86% 30.05 in 9.0 mi Calm Calm - N/A   Clear
5:53 AM 54.0 °F 51.1 °F 90% 30.06 in 5.0 mi Calm Calm - N/A   Partly Cloudy
6:53 AM 54.0 °F 50.0 °F 86% 30.07 in 2.0 mi Calm Calm - N/A   Scattered Clouds
7:04 AM 53.6 °F 50.0 °F 88% 30.10 in 5.0 mi Calm Calm - N/A   Partly Cloudy
7:53 AM 57.9 °F 54.0 °F 87% 30.07 in 9.0 mi South 3.5 mph - N/A   Mostly Cloudy
8:53 AM 61.0 °F 55.9 °F 83% 30.08 in 10.0 mi Calm Calm - N/A   Overcast
9:53 AM 64.0 °F 55.0 °F 73% 30.08 in 10.0 mi Variable 4.6 mph - N/A   Mostly Cloudy
10:53 AM 70.0 °F 54.0 °F 57% 30.07 in 10.0 mi South 5.8 mph - N/A   Clear
11:53 AM 71.1 °F 53.1 °F 53% 30.06 in 10.0 mi Variable 5.8 mph 17.3 mph N/A   Clear
12:53 PM 72.0 °F 53.1 °F 51% 30.05 in 10.0 mi Variable 5.8 mph - N/A   Partly Cloudy
1:53 PM 73.0 °F 54.0 °F 51% 30.02 in 10.0 mi Variable 4.6 mph - N/A   Partly Cloudy
2:53 PM 71.1 °F 53.1 °F 53% 30.01 in 10.0 mi South 8.1 mph - N/A   Mostly Cloudy
3:53 PM 73.0 °F 53.1 °F 49% 30.01 in 10.0 mi SSE 5.8 mph - N/A   Scattered Clouds
4:53 PM 72.0 °F 55.0 °F 55% 30.01 in 10.0 mi Calm Calm - N/A   Partly Cloudy
5:53 PM 68.0 °F 55.9 °F 65% 30.03 in 10.0 mi Calm Calm - N/A   Clear
6:53 PM 63.0 °F 55.9 °F 78% 30.04 in 10.0 mi Calm Calm - N/A   Clear
7:53 PM 62.1 °F 55.0 °F 78% 30.06 in 10.0 mi Calm Calm - N/A   Clear
8:53 PM 60.1 °F 55.0 °F 83% 30.06 in 10.0 mi Calm Calm - N/A   Clear
9:53 PM 57.9 °F 54.0 °F 87% 30.08 in 10.0 mi Calm Calm - N/A   Clear
10:53 PM 55.9 °F 53.1 °F 90% 30.06 in 7.0 mi Calm Calm - N/A   Clear
11:53 PM 55.9 °F 53.1 °F 90% 30.06 in 10.0 mi Calm Calm - N/A   Clear